TimeCDT,TemperatureF,Dew PointF,Humidity,Sea Level PressureIn,VisibilityMPH,Wind Direction,Wind SpeedMPH,Gust SpeedMPH,PrecipitationIn,Events,Conditions,WindDirDegrees,DateUTC
12:53 AM,37.9,34.0,86,29.99,10.0,Calm,Calm,-,N/A,,Clear,0,2012-11-01 05:53:00
1:53 AM,37.9,34.0,86,29.98,10.0,NNW,4.6,-,N/A,,Clear,340,2012-11-01 06:53:00
2:53 AM,41.0,35.1,79,29.99,10.0,NW,9.2,-,N/A,,Clear,320,2012-11-01 07:53:00
3:53 AM,45.0,37.9,76,29.99,10.0,NNW,12.7,-,N/A,,Clear,330,2012-11-01 08:53:00
4:53 AM,43.0,37.9,82,29.99,10.0,NW,15.0,-,N/A,,Clear,320,2012-11-01 09:53:00
5:53 AM,41.0,37.0,86,30.01,10.0,Calm,Calm,-,N/A,,Clear,0,2012-11-01 10:53:00
6:53 AM,37.9,36.0,93,30.04,10.0,NW,5.8,-,N/A,,Clear,320,2012-11-01 11:53:00
7:24 AM,39.2,37.4,93,30.02,7.0,NNW,13.8,-,N/A,,Scattered Clouds,330,2012-11-01 12:24:00
7:33 AM,39.2,37.4,93,30.02,7.0,NNW,12.7,-,N/A,,Mostly Cloudy,330,2012-11-01 12:33:00
7:53 AM,41.0,39.0,93,30.05,5.0,NNW,13.8,-,N/A,,Overcast,340,2012-11-01 12:53:00
8:17 AM,41.0,39.2,93,30.02,4.0,North,13.8,-,N/A,,Overcast,350,2012-11-01 13:17:00
8:30 AM,41.0,39.2,93,30.03,2.5,North,10.4,-,N/A,,Overcast,350,2012-11-01 13:30:00
8:53 AM,41.0,39.9,96,30.07,2.5,NNW,12.7,-,N/A,,Overcast,340,2012-11-01 13:53:00
9:53 AM,43.0,41.0,93,30.08,2.5,North,12.7,-,N/A,,Overcast,360,2012-11-01 14:53:00
10:53 AM,43.0,41.0,93,30.10,2.5,NNW,10.4,-,N/A,,Overcast,340,2012-11-01 15:53:00
11:12 AM,42.8,39.2,87,30.06,3.0,North,10.4,-,N/A,,Overcast,360,2012-11-01 16:12:00
11:19 AM,42.8,41.0,93,30.06,2.5,North,6.9,-,N/A,,Overcast,360,2012-11-01 16:19:00
11:27 AM,42.8,39.2,87,30.06,3.0,North,6.9,-,N/A,,Overcast,360,2012-11-01 16:27:00
11:53 AM,44.1,39.9,85,30.09,3.0,North,8.1,-,N/A,,Overcast,10,2012-11-01 16:53:00
12:53 PM,45.0,39.9,82,30.07,4.0,ENE,5.8,-,N/A,,Haze,70,2012-11-01 17:53:00
1:20 PM,46.4,39.2,76,30.02,5.0,NE,6.9,-,N/A,,Haze,50,2012-11-01 18:20:00
1:53 PM,48.9,41.0,74,30.04,5.0,Calm,Calm,-,N/A,,Haze,0,2012-11-01 18:53:00
2:10 PM,50.0,41.0,71,29.99,6.0,Variable,5.8,-,N/A,,Haze,0,2012-11-01 19:10:00
2:53 PM,52.0,39.9,63,30.00,7.0,ENE,5.8,-,N/A,,Clear,60,2012-11-01 19:53:00
3:53 PM,52.0,39.9,63,29.98,7.0,ENE,6.9,-,N/A,,Clear,70,2012-11-01 20:53:00
4:53 PM,52.0,39.9,63,29.97,8.0,ESE,6.9,-,N/A,,Clear,110,2012-11-01 21:53:00
5:53 PM,50.0,39.9,68,29.96,7.0,East,4.6,-,N/A,,Clear,90,2012-11-01 22:53:00
6:53 PM,46.9,39.0,74,29.97,7.0,ESE,4.6,-,N/A,,Clear,120,2012-11-01 23:53:00
7:53 PM,43.0,37.9,82,29.99,7.0,ESE,3.5,-,N/A,,Clear,120,2012-11-02 00:53:00
8:53 PM,42.1,37.9,85,29.96,6.0,ESE,8.1,-,N/A,,Clear,120,2012-11-02 01:53:00
9:53 PM,39.9,37.0,89,29.96,5.0,ESE,6.9,-,N/A,,Clear,120,2012-11-02 02:53:00
10:53 PM,39.0,37.0,93,29.95,4.0,SE,4.6,-,N/A,,Clear,130,2012-11-02 03:53:00
11:27 PM,37.4,35.6,93,29.92,3.0,ESE,5.8,-,N/A,,Scattered Clouds,110,2012-11-02 04:27:00
11:36 PM,37.4,35.6,93,29.92,3.0,East,3.5,-,N/A,,Mostly Cloudy,100,2012-11-02 04:36:00
11:53 PM,37.9,36.0,93,29.96,3.0,ESE,6.9,-,N/A,,Overcast,110,2012-11-02 04:53:00